Location: Overspoor
(51.4747°N, 5.6641°E)
Time: 11:24:52
(UTC+02:00)

AO-92 - Visible Passes

Search period start: 29 June 2022 00:00
Search period end: 09 July 2022 00:00
Orbit: 472 x 481 km, 97.4° (Epoch: 28 June)

Date Brightness Start Highest point End Pass type
(mag) Time Alt. Az. Time Alt. Az. Time Alt. Az.
29 Jun ? 00:40:23 10° SW 00:42:34 15° W 00:44:46 10° NW visible
30 Jun ? 00:12:55 12° SSW 00:15:40 29° W 00:18:49 10° NNW visible
30 Jun ? 23:45:57 14° S 23:48:51 57° W 23:52:24 10° NNW visible
01 Jul ? 23:19:00 13° SSE 23:22:09 69° ENE 23:25:43 10° N visible
02 Jul ? 00:54:42 10° WSW 00:55:54 11° W 00:57:07 10° WNW visible
02 Jul ? 22:52:16 10° SE 22:55:31 35° ENE 22:58:48 10° N visible
03 Jul ? 00:26:14 10° SW 00:28:55 21° W 00:31:43 10° NW visible
03 Jul ? 23:59:15 14° SSW 00:02:02 40° W 00:05:26 10° NNW visible
04 Jul ? 23:32:16 14° SSE 23:35:14 84° WSW 23:38:50 10° NNW visible
05 Jul ? 23:05:17 11° SE 23:08:31 48° ENE 23:12:00 10° N visible
06 Jul ? 00:39:51 10° SW 00:42:06 16° W 00:44:21 10° NW visible
06 Jul ? 22:38:55 10° ESE 22:41:55 25° ENE 22:44:54 10° N visible
07 Jul ? 00:12:28 13° SSW 00:15:08 29° W 00:18:18 10° NNW visible
07 Jul ? 23:45:28 15° S 23:48:15 59° W 23:51:48 10° NNW visible
08 Jul ? 23:18:27 14° SSE 23:21:28 68° ENE 23:25:02 10° N visible
